CYGFM05

导读

CYGFM05是美国于2016年12月15日08:00发射的航天器,作为美国航天发射序列中的一员,该卫星的具体任务细节和轨道参数未完全公开,推测大概率是美国军方相关保密载荷。 从发射时间和归属背景来看,它延续了美国航天领域常态化部署空间资产的节奏,依托成熟运载技术入轨后,持续在轨道运行承担既定空间任务,是美国空间基础设施建设布局中的组成部分。

Basic Information
目录编号:
41884
目录名称:
CYGFM05
国际标识:
2016-078A
轨道中心:
EARTH
卫星名称:
CYGFM05
卫星全名:
--
卫星状态:
在轨 (已飞行3557 天)
发射日期:
2016-12-15 UTC
国别 :
美国 (US)
星等 :
--
Orbit Information
数据来源 国际轨道数据 AOE轨道数据
星历时间 2026-09-10T23:06:06+0800
12小时前
查看轨道信息
2026-09-09T23:00:00+0800
1天前
查看轨道信息
半长轴 6764.706km 6764.842km
偏心率 0.0005475 0.0005548
轨道倾角 34.956° 34.956°
近地点辐角 255.325° 248.569°
升交点赤经 53.236° 59.924°
平近点角 104.687° 220.765°
近地点 382.865km 382.951km
远地点 390.273km 390.459km
周期 92.285分钟 92.288分钟
每日圈数 15.603765 15.603295
Detailed Information
使用方式:
暂无
2D Orbit Map
3D Orbit Map
Orbit Altitude Analysis Chart
Orbit Inclination Analysis Chart
Orbit Comprehensive Analysis Chart
View Comprehensive Chart
Conjunction Data List
Event ID Objects TCA Miss Dist (km) Collision Risk Probability Collision Risk Index (CRI) Action
CDM_260911-100204-188405-828022
CYGFM05 (41884)
2026-09-11T
10:02:18+0000
2.263 km
极远距离
1.664554E-6 低风险 0.39
CDM_260912-211304-188406-176921
CYGFM05 (41884)
2026-09-12T
21:13:35+0000
2.530 km
极远距离
1.495361E-6 低风险 0.38
Miss Distance Evolution Trend with All Objects
Collision Probability Evolution Trend with All Objects